Home > Weather > Kulmbach > Past weeks

Flag for Germany Past Weather in Kulmbach, Bavaria, Germany — Yesterday and Last 2 Weeks

Now
48 °F

Fog.


Feels Like: 48 °F
Forecast: 51 / 70 °F
Wind: No wind

Location: Grafenwoehr

Current Time: May 26, 2016 at 4:55:10 AM

Latest Report: May 26, 2016 at 3:58 AM


Visibility: 6 mi

Pressure: 30.00 "Hg

Humidity: 94%

Dew Point: 46 °F

Location of KulmbachLocation

Past Weather in Kulmbach — Graph

°F

Kulmbach Temperature Yesterday

Maximum temperature yesterday: 61 °F (at 7:58 PM)
Minimum temperature yesterday: 50 °F (at 4:58 AM)
Average temperature yesterday: 55 °F

High & Low Weather Summary for the Past Weeks

 TemperatureHumidityPressure
High84 °F (May 22, 2:58 PM)100% (May 20, 3:58 AM)30.13 "Hg (May 20, 3:58 AM)
Low37 °F (May 15, 12:58 AM)22% (May 22, 3:58 PM)29.41 "Hg (May 13, 5:58 AM)
Average54 °F72%29.87 "Hg
* Reported May 11 2:58 AM — May 26 2:58 AM, Kulmbach, Weather by CustomWeather, © 2016

Note: Actual official high and low records may vary slightly from our data, if they occured in-between our weather recording intervals... More about our weather records

Advertising

Kulmbach Weather History for the Previous 24 Hours

Scroll right to see more
 ConditionsComfort  
Time TempWeatherWind HumidityBarometerVisibility
2:58 AM
Thu, May 26
48 °FPassing clouds.No wind100%30.01 "HgN/A
1:58 AM50 °FClear.No wind94%30.01 "HgN/A
12:58 AM54 °FPassing clouds.2 mph88%30.01 "HgN/A
12:01 AM55 °FMostly cloudy.2 mph88%30.00 "HgN/A
10:58 PM
Wed, May 25
55 °FOvercast.7 mph88%29.99 "HgN/A
10:03 PM55 °FPartly sunny.3 mph88%29.98 "HgN/A
9:58 PM55 °FPartly sunny.5 mph88%29.98 "HgN/A
8:58 PM59 °FOvercast.1 mph77%29.97 "HgN/A
7:58 PM61 °FOvercast.No wind72%29.96 "HgN/A
6:58 PM59 °FOvercast.No wind72%29.96 "HgN/A
5:58 PM59 °FOvercast.No wind77%29.96 "HgN/A
4:58 PM59 °FOvercast.2 mph77%29.96 "HgN/A
3:58 PM59 °FMostly cloudy.1 mph72%29.97 "HgN/A
2:58 PM57 °FOvercast.1 mph77%29.98 "HgN/A
1:58 PM55 °FOvercast.6 mph82%29.98 "HgN/A
12:58 PM57 °FOvercast.8 mph77%29.97 "HgN/A
11:58 AM57 °FOvercast.2 mph77%29.96 "HgN/A
10:58 AM55 °FOvercast.No wind82%29.96 "HgN/A
9:58 AM54 °FMostly cloudy.1 mph94%29.96 "HgN/A
8:58 AM52 °FLow clouds.No wind100%29.97 "HgN/A
7:58 AM52 °FLow clouds.2 mph100%29.96 "HgN/A
6:58 AM52 °FFog.3 mph94%29.95 "Hg5 mi
5:58 AM50 °FFog.5 mph100%29.95 "Hg2 mi
4:58 AM50 °FFog.3 mph100%29.93 "Hg4 mi
Weather by CustomWeather, © 2016

See weather overviewHow to use our weather pages